COSMOS 962

Satellite information

Favourite Embed

Satellite Type and Status

PAYLOADIN ORBIT

Key statistics

Satellite COSMOS 962 at a glance.

Uptime

17418

Days in orbit

Revolutions

≈ 13.7

Per day

Orbit

LEO

Low Earth Orbit

Inclination

82.9

Latest

Satellite identification and parameters

Extended collection of information and parameters for COSMOS 962.

Object identification

Identified? True

Debris? False

Object name: COSMOS 962

International designator: 1977-107A

Object number (NORAD): 10459

Object ID (CCSDS): 10459

Country: COMMONWEALTH OF INDEPENDENT STATES (CIS)

Current information (Y/N): Y

RCS size: LARGE

Orbital parameters

Period: 104.737 minutes

Inclination: 82.9497 deg

SMA: 7360.272 km

Apoapsis: 1003.1 km

Periapsis: 961.175 km

RAAN: 35.9342 deg

Eccentricy: 0.0028481

Argument of periapsis: 1.8344 deg

Mean anomaly: 64.4843 deg

Mean motion: 13.74870906 rev/day

Mean motion (dot): 0.00000048 rev/day2

B* drag term: 0.000034785 1/REarth

Two-line elements (TLE)

Creation date: July 5, 2025, 10:36 p.m.

Reference frame: TEME

Reference center: EARTH

Epoch: July 5, 2025, 4:14 p.m. UTC

TLE line 0: 0 COSMOS 962

TLE line 1: 1 10459U 77107A 25186.67662531 .00000048 00000-0 34785-4 0 9992

TLE line 2: 2 10459 82.9497 35.9342 0028481 1.8344 64.4843 13.74870906392063

Live tracking on map

Real-time ground track for satellite COSMOS 962.

In-orbit conjunctions

A list of the most updated potential collisions computed for object COSMOS 962.

Target Orbit TCA Probability of collision Miss distance Type
FENGYUN 1C DEB SSO 2025-01-04 18:38:40 0.0006992748 402.0 (m) DEBRIS
COSMOS 970 DEB LEO 2024-11-18 18:57:46 0.0001910355 591.0 (m) DEBRIS
SL-16 DEB LEO 2024-11-13 22:57:21 0.0001371532 913.0 (m) DEBRIS
COSMOS 1150 LEO 2024-08-16 10:41:27 0.0009900744 120.0 (m) PAYLOAD
CZ-6A DEB SSO 2024-06-29 23:52:13 0.0002163819 888.0 (m) DEBRIS

Associated space launch

Molniya communication satellites operating from a highly elliptical orbit

COSMOS 962 was lifted into orbit during the mission ‘Molniya-M | Molniya-3 18L’, on board a Molniya-M space rocket.

The launch took place on Oct. 28, 1977, 1:37 a.m. from 43/3 (43L).

For more information about the launch, click the button.

Launch to space Molniya-M | Molniya-3 18L
Molniya-M | Molniya-3 18L

Agency: N/A

Status: Launch Successful

Launch date: Oct. 28, 1977, 1:37 a.m. UTC

Rocket: Molniya-M

Launch pad: 43/3 (43L)

Location: Plesetsk Cosmodrome, Russian Federation

...

Latest news about this satellite

There are no fresh news available about this satellite. Check back as we update our databases every day.


Newsletter sign-up

Weekly statistics, charts and insights to help you stay on top of the space industry.